Tracking 23757 objects as of 26-Oct-2021
HD Live streaming from Space Station
objects crossing your sky now

COSMOS 540

Track COSMOS 540 now!
10-day predictions
COSMOS 540 is classified as:


NORAD ID: 6323
Int'l Code: 1972-104A
Perigee: 764.3 km
Apogee: 790.1 km
Inclination: 74.1 °
Period: 100.2 minutes
Semi major axis: 7148 km
RCS: 2.1717 m2 (large)
Launch date: December 25, 1972
Source: Commonwealth of Independent States (former USSR) (CIS)
Launch site: PLESETSK MISSILE AND SPACE COMPLEX (PKMTR)
aabbcc
Your satellite tracking list
Your tracking list is empty




NASA's NSSDC Master Catalog

Two Line Element Set (TLE):
1 06323U 72104A   21298.22731857  .00000041  00000-0  22857-4 0  9998
2 06323  74.0804 329.3693 0017989   5.6297 354.5055 14.36507025555417
Source of the keplerian elements: AFSPC